Wetbulb
58.16 56.64 57.26 54.87 45.13 41.00 37.97 42.42 47.04 48.22 49.85 53.41 57.56 57.17 56.67 57.27 57.57 54.50 67.14 69.41 69.35 70.15 71.87 72.51 72.44 72.93 72.93 72.95 72.89 72.88 73.27 73.16 73.40 73.18 72.80 72.81 72.62 72.52 72.43 72.31 72.23 72.33 71.87 71.74 71.92 71.70 71.84 71.83 71.60
57.00 58.11 54.34 48.87 40.85 35.20 38.25 45.09 46.97 48.99 52.28 60.08 61.63 61.00 59.78 59.33 64.52 65.99 66.56 69.61 69.31 70.56 71.90 72.46 72.25 72.47 72.64 72.67 72.71 73.11 73.46 73.26 73.32 73.11 73.03 72.91 72.26 72.12 71.99 71.86 71.62 71.73 71.15 71.25 71.52 71.38 71.41 71.35 71.24
56.35 57.35 49.41 44.45 38.73 36.65 39.74 45.87 48.44 51.74 55.54 56.32 58.65 60.61 61.52 61.29 65.88 66.50 68.87 69.23 69.95 70.37 71.64 72.30 72.01 72.01 72.50 72.48 72.53 72.92 72.91 72.56 72.80 72.90 72.92 72.39 71.91 71.67 71.34 71.38 71.22 71.56 70.66 70.65 71.00 70.88 70.61 70.47 70.08
53.71 51.28 49.29 40.40 38.89 42.56 44.04 48.78 49.43 50.48 55.43 60.59 59.94 58.88 63.13 66.59 66.37 68.31 69.67 69.60 68.88 69.80 70.90 71.02 71.17 71.58 72.31 72.43 72.53 72.66 72.30 71.77 71.87 72.50 72.85 72.65 71.86 71.54 71.22 70.99 71.09 71.34 70.69 70.12 70.22 70.01 69.64 69.17 68.80
51.75 46.53 39.61 36.66 38.95 43.17 46.55 48.45 49.38 50.81 54.64 56.01 60.53 58.71 61.17 66.45 68.99 69.52 69.17 68.92 67.93 69.19 70.53 71.20 70.32 71.41 72.10 72.41 72.55 72.30 71.74 71.46 71.56 72.12 72.40 72.50 72.48 71.62 71.28 70.64 70.90 71.13 71.04 69.77 69.06 68.75 68.72 68.28 68.41
46.85 44.80 36.59 34.50 38.81 44.65 47.14 48.16 49.35 50.51 54.01 57.85 60.43 60.28 61.53 66.78 68.76 68.79 69.25 67.88 68.53 68.66 69.90 71.01 71.40 71.39 71.53 71.77 71.88 71.20 71.08 71.12 71.19 71.50 71.98 72.33 71.87 71.17 70.84 70.72 70.55 70.45 70.08 69.18 68.39 67.51 67.35 66.99 66.81
44.39 40.71 37.58 38.65 42.38 43.94 47.18 50.41 50.28 50.86 49.50 51.67 62.80 58.39 61.95 64.31 67.52 69.17 68.44 67.84 68.56 69.00 68.97 70.08 71.02 71.51 70.75 70.23 70.28 70.03 70.36 70.66 70.80 70.80 71.09 71.14 70.55 70.01 70.20 70.35 70.26 69.85 69.14 68.14 67.33 66.71 65.97 65.89 65.91
45.78 42.08 36.77 38.35 41.29 41.93 47.53 49.13 49.53 50.88 51.88 57.16 61.89 57.80 58.88 64.58 66.61 68.49 68.51 67.77 68.09 68.36 68.30 68.84 70.15 70.96 70.96 70.66 69.54 69.40 69.67 69.71 69.98 70.42 70.11 69.60 69.82 69.56 69.65 69.58 69.87 69.50 68.82 67.80 66.97 65.74 65.00 64.78 64.74
46.95 38.88 35.34 38.20 40.99 43.83 48.78 47.14 50.19 52.75 52.20 56.45 59.91 61.70 65.55 66.75 68.25 68.44 68.25 68.00 67.28 67.63 67.80 68.52 68.91 69.49 69.70 69.92 70.32 70.03 70.29 69.64 69.53 70.18 69.58 68.50 69.09 68.57 69.03 68.63 68.92 68.88 67.98 67.12 66.46 65.26 64.15 63.34 62.93
43.06 36.96 39.92 44.40 45.86 45.51 47.16 45.47 48.02 49.44 51.35 57.49 61.29 64.41 66.27 67.61 67.69 67.25 67.42 67.42 67.01 66.95 66.68 67.71 68.00 68.03 68.34 70.15 69.76 69.09 69.78 69.42 69.40 69.35 68.88 68.55 67.71 67.58 68.71 68.41 68.02 67.89 67.14 66.55 65.84 65.01 64.00 62.90 57.33
42.43 41.18 43.74 47.10 48.41 48.28 45.37 46.79 46.86 46.19 47.38 55.20 60.31 62.79 65.37 66.32 66.62 66.95 67.91 68.41 68.45 68.77 67.90 67.10 67.49 67.65 67.73 68.24 68.70 68.27 68.64 68.05 68.16 67.76 67.94 67.21 67.40 67.01 67.30 66.04 66.83 65.68 66.66 64.30 64.30 63.13 61.71 60.04 58.24
42.08 45.85 45.84 47.14 49.51 47.18 46.04 47.89 47.36 47.12 49.01 51.44 57.36 64.65 65.13 64.97 65.63 66.15 66.56 67.65 67.84 68.94 68.65 67.53 67.31 67.21 67.14 67.60 67.69 67.60 67.48 67.44 67.12 67.30 67.19 66.71 65.90 66.01 65.25 65.29 65.27 64.73 64.52 62.96 62.67 61.98 61.67 60.90 60.90
44.41 46.05 47.43 48.46 48.43 47.11 48.30 46.79 47.72 47.99 49.19 49.45 50.92 55.35 59.26 64.11 64.96 66.26 67.13 67.85 67.77 68.92 68.92 67.80 67.31 66.82 67.02 67.24 66.68 66.82 66.77 67.11 67.01 66.88 67.42 67.06 66.00 65.32 65.54 65.09 65.13 64.91 64.16 63.71 63.09 62.80 62.75 62.58 62.41
46.53 46.26 46.06 47.30 47.49 47.15 46.33 47.00 45.95 49.29 49.60 49.18 49.71 48.24 52.80 55.64 62.53 63.75 62.57 62.45 67.03 69.17 69.59 68.87 67.78 67.48 67.50 67.97 67.03 66.49 66.64 66.57 66.70 66.91 67.17 67.06 66.23 65.66 66.49 65.59 65.56 65.04 65.16 64.62 64.15 63.95 63.79 64.27 64.48
48.05 44.15 46.52 47.13 46.55 46.62 46.94 45.50 45.06 48.75 49.41 49.15 48.46 48.66 49.19 51.85 55.24 57.04 60.02 58.36 66.78 68.71 70.56 69.38 69.12 68.96 68.31 68.65 68.02 67.32 67.06 66.83 66.79 66.66 67.04 67.69 67.11 66.50 66.65 66.56 66.08 66.40 66.02 65.33 65.14 64.95 64.75 65.11 64.88
46.11 44.86 39.96 46.60 47.98 47.66 47.22 42.32 46.75 48.95 47.03 47.99 48.30 48.33 49.09 49.36 51.39 53.42 54.45 53.72 62.90 68.31 69.44 70.21 70.86 69.76 69.34 69.11 68.84 68.41 67.68 67.18 67.26 67.49 67.57 68.31 68.15 67.38 66.29 66.45 66.27 66.43 65.86 65.63 64.44 63.61 63.58 62.51 61.64
42.27 37.22 38.87 42.85 47.62 46.71 45.73 43.97 47.29 49.03 48.76 47.83 47.55 47.64 48.24 48.62 49.72 49.64 52.13 53.18 64.55 67.74 69.05 69.64 70.09 69.62 69.21 68.89 68.90 68.71 68.25 67.88 67.91 67.98 68.14 68.23 68.33 67.87 66.99 66.45 65.75 65.69 65.14 64.21 63.45 61.50 61.69 60.30 60.03
37.21 38.20 37.63 39.27 44.82 46.13 45.06 45.11 47.44 48.22 47.61 47.75 47.69 47.54 48.06 49.14 50.22 52.50 51.78 53.20 61.59 67.47 69.31 69.66 69.60 69.56 69.05 68.90 67.88 66.85 67.22 66.45 68.35 67.80 67.80 67.67 68.07 67.73 66.88 65.61 64.90 65.14 64.41 63.19 62.59 61.95 61.59 61.06 60.06
41.88 40.96 40.04 41.65 45.68 44.83 44.33 42.58 44.17 46.98 45.43 46.19 48.34 48.30 47.29 49.16 52.00 50.26 50.67 54.13 61.61 66.97 68.32 68.82 68.94 69.03 68.88 67.94 66.77 66.39 66.06 65.66 65.81 67.37 66.68 67.13 67.29 67.53 66.61 65.43 64.26 64.06 63.66 63.75 62.90 60.59 59.31 56.63 52.64
41.10 38.73 38.11 41.31 44.47 43.60 42.85 42.66 45.40 45.67 46.45 45.83 46.73 48.50 49.67 47.03 49.19 51.65 51.36 52.39 58.60 66.11 67.77 68.52 68.77 68.81 68.75 68.72 68.26 67.08 66.58 65.70 66.20 67.17 66.95 67.90 67.55 67.77 67.02 65.44 64.65 63.52 58.88 58.53 57.19 53.50 51.37 50.87 49.61
37.83 37.60 38.14 38.18 41.04 43.08 41.39 40.37 42.91 45.98 46.50 47.35 47.66 48.17 48.67 48.81 49.07 50.43 53.48 54.17 53.41 64.47 66.71 67.90 68.42 68.63 68.72 68.96 67.24 65.59 65.01 64.53 64.78 66.01 66.32 66.93 67.46 67.53 66.55 63.12 60.65 58.13 53.03 51.71 50.57 49.86 49.09 46.98 47.54
34.85 41.00 40.59 39.70 37.86 34.13 40.89 32.38 40.45 44.11 45.26 46.60 46.82 45.77 46.84 48.01 49.55 50.24 53.84 54.05 54.72 61.09 66.94 68.17 68.43 68.56 68.54 68.21 66.79 65.52 65.10 63.99 63.60 64.37 65.63 64.72 61.35 58.62 57.33 55.41 54.11 52.76 50.57 49.44 49.67 50.25 47.94 47.46 44.64
38.23 42.92 40.67 39.91 37.18 35.96 36.83 33.20 39.20 44.47 43.05 45.41 47.00 46.80 46.69 47.54 48.84 49.15 52.99 56.47 57.50 58.13 65.75 67.71 68.18 68.46 68.01 67.15 66.91 65.50 64.52 62.74 64.08 63.37 63.90 58.17 55.50 55.16 54.83 53.21 52.12 51.45 51.23 49.78 48.09 48.72 49.41 48.71 47.43
46.14 42.65 41.56 40.27 36.77 29.80 35.63 35.27 36.16 39.64 42.93 44.38 46.66 47.69 48.13 47.76 48.26 49.62 50.45 55.59 57.65 56.42 62.70 67.09 67.47 67.81 67.17 67.14 65.97 65.37 63.67 61.46 61.87 61.74 58.96 54.75 53.15 52.21 52.11 52.33 51.58 51.56 50.36 48.90 48.80 48.59 46.65 48.43 46.26
43.53 38.61 30.61 30.15 28.87 28.35 38.33 34.65 37.40 41.42 45.22 46.42 46.66 47.63 48.22 49.22 47.13 47.16 47.34 51.55 55.50 58.10 64.20 65.81 66.35 66.10 66.39 65.47 64.71 64.27 61.92 61.42 60.78 58.95 55.72 51.53 50.35 49.87 49.46 50.51 50.31 49.72 49.63 49.44 49.24 48.26 48.18 47.00 46.26
41.65 39.91 32.95 25.42 25.87 29.59 38.02 31.15 37.55 45.34 47.18 48.00 48.32 49.47 49.58 48.32 46.87 47.14 48.26 49.23 54.95 59.02 63.67 65.09 65.72 65.42 65.10 64.71 62.52 61.03 60.20 60.41 59.69 57.90 54.09 52.90 50.41 49.84 49.69 49.58 48.74 49.08 48.76 47.60 47.16 46.07 45.84 45.24 44.08
39.79 36.19 42.59 35.78 36.78 31.20 33.23 36.05 41.93 45.10 45.47 46.70 47.34 48.67 49.11 49.61 48.28 48.54 48.90 49.82 53.91 59.55 63.07 64.51 65.66 64.62 64.12 63.78 59.76 57.74 58.47 57.66 56.25 53.22 52.69 50.35 50.08 49.01 49.20 48.27 48.48 46.66 46.67 46.00 44.95 44.47 43.74 42.24 41.58
41.86 43.89 35.11 35.42 26.94 26.82 31.89 33.29 34.93 40.98 43.24 45.81 46.21 46.51 48.16 48.06 48.60 48.18 48.64 53.06 58.81 61.52 61.91 63.18 63.74 63.00 62.60 60.47 58.08 55.46 54.30 53.82 51.77 51.68 49.87 49.25 48.64 49.15 47.82 47.89 46.40 45.66 45.06 43.68 43.56 41.26 40.31 39.74 39.74
38.14 37.67 39.01 38.29 35.67 28.32 27.17 31.73 42.06 42.45 43.98 43.50 45.16 47.23 47.79 48.98 47.48 48.38 49.28 55.00 60.03 61.00 60.13 59.89 60.25 60.78 58.62 57.86 54.38 52.78 50.95 51.01 50.49 49.54 48.16 48.01 47.90 47.24 46.92 44.85 44.85 42.84 42.31 41.47 39.53 39.31 39.48 38.56 38.48
40.26 37.07 37.36 31.18 31.25 32.30 32.51 32.31 42.74 45.21 45.59 44.47 44.70 46.15 45.67 47.20 47.83 47.57 48.97 55.63 59.56 59.34 57.97 57.01 57.00 56.87 55.81 54.78 51.49 50.45 49.78 49.36 48.65 47.98 47.71 47.51 46.60 46.51 45.52 44.38 43.23 42.28 39.46 38.88 38.17 37.54 38.28 37.53 36.60
MSLP
1011.02 1010.80 1010.73 1011.17 1012.67 1012.96 1012.16 1010.20 1008.00 1006.43 1005.03 1004.29 1004.71 1005.59 1005.97 1005.51 1006.94 1008.30 1007.14 1007.51 1008.50 1009.53 1010.26 1010.93 1011.19 1011.44 1011.72 1012.07 1012.46 1012.83 1013.15 1013.51 1013.76 1014.02 1014.53 1014.87 1015.18 1015.37 1015.60 1015.75 1015.91 1016.03 1016.23 1016.46 1016.61 1016.78 1016.96 1017.13 1017.27
1010.89 1010.56 1011.03 1011.91 1012.88 1012.93 1011.56 1009.06 1007.17 1005.28 1004.57 1004.78 1005.01 1005.41 1005.22 1006.01 1006.18 1006.88 1007.52 1008.27 1008.35 1009.16 1010.13 1010.75 1011.13 1011.37 1011.71 1012.09 1012.52 1012.86 1013.20 1013.47 1013.83 1014.10 1014.51 1015.00 1015.36 1015.49 1015.75 1016.05 1016.23 1016.28 1016.45 1016.59 1016.73 1016.93 1017.11 1017.24 1017.40
1010.76 1010.87 1011.91 1012.38 1012.69 1012.25 1010.79 1008.03 1006.43 1005.04 1004.37 1004.51 1004.34 1004.47 1005.27 1005.75 1006.05 1006.77 1007.30 1008.33 1008.84 1009.43 1010.08 1010.63 1011.06 1011.29 1011.67 1012.11 1012.51 1012.89 1013.23 1013.47 1013.81 1014.17 1014.53 1015.01 1015.38 1015.57 1015.78 1016.10 1016.46 1016.56 1016.56 1016.67 1016.77 1016.95 1017.19 1017.34 1017.50
1010.91 1011.63 1012.40 1012.46 1012.27 1010.52 1009.44 1007.38 1006.09 1005.23 1003.68 1003.47 1003.91 1004.82 1005.26 1005.19 1005.47 1006.24 1007.59 1008.33 1009.03 1009.74 1010.17 1010.71 1010.99 1011.25 1011.63 1012.01 1012.47 1012.85 1013.16 1013.44 1013.77 1014.12 1014.45 1014.97 1015.45 1015.69 1015.84 1016.15 1016.44 1016.60 1016.73 1016.79 1017.02 1017.09 1017.21 1017.28 1017.47
1011.30 1012.42 1012.92 1012.68 1011.60 1009.92 1008.69 1007.16 1005.91 1005.27 1003.64 1003.44 1003.49 1004.97 1005.44 1005.63 1005.82 1006.51 1007.60 1008.41 1008.97 1009.88 1010.29 1010.76 1011.06 1011.29 1011.59 1011.93 1012.29 1012.78 1013.15 1013.38 1013.77 1014.07 1014.42 1014.89 1015.31 1015.81 1015.98 1016.15 1016.50 1016.71 1016.90 1016.99 1017.11 1017.20 1017.25 1017.31 1017.35
1011.95 1012.89 1013.32 1012.71 1011.25 1009.54 1008.10 1006.79 1005.81 1004.47 1003.22 1003.43 1003.65 1004.57 1005.60 1005.77 1006.05 1006.90 1007.52 1008.31 1008.87 1009.65 1010.30 1010.80 1011.15 1011.34 1011.55 1011.85 1012.22 1012.65 1013.07 1013.41 1013.77 1014.11 1014.49 1014.82 1015.15 1015.54 1015.96 1016.30 1016.48 1016.77 1016.97 1017.15 1017.27 1017.33 1017.40 1017.47 1017.44
1012.14 1013.11 1012.99 1012.15 1010.93 1009.21 1007.54 1006.01 1004.95 1003.79 1002.92 1003.04 1003.12 1004.62 1005.82 1006.26 1006.53 1006.84 1007.70 1008.29 1008.93 1009.70 1010.27 1010.73 1011.10 1011.34 1011.56 1011.89 1012.21 1012.59 1013.00 1013.44 1013.76 1014.05 1014.43 1014.80 1015.13 1015.45 1015.77 1016.07 1016.45 1016.74 1017.09 1017.38 1017.43 1017.57 1017.58 1017.65 1017.69
1011.66 1012.64 1012.50 1011.73 1010.62 1008.86 1007.19 1005.99 1005.00 1003.90 1002.60 1002.50 1003.11 1004.51 1005.78 1005.84 1006.50 1007.28 1008.28 1008.97 1009.30 1009.83 1010.28 1010.72 1011.02 1011.33 1011.67 1011.99 1012.18 1012.60 1013.00 1013.35 1013.76 1014.02 1014.32 1014.78 1015.05 1015.37 1015.66 1016.02 1016.44 1016.79 1017.08 1017.41 1017.60 1017.66 1017.77 1017.81 1017.88
1011.04 1012.17 1012.07 1011.15 1010.06 1008.12 1007.12 1006.40 1004.77 1003.97 1002.61 1002.66 1003.06 1003.49 1003.99 1005.43 1006.35 1007.40 1008.66 1009.53 1009.82 1010.21 1010.38 1010.66 1010.98 1011.22 1011.55 1011.87 1012.17 1012.56 1012.97 1013.30 1013.70 1014.04 1014.37 1014.81 1015.12 1015.31 1015.60 1015.90 1016.26 1016.64 1017.00 1017.26 1017.56 1017.69 1017.81 1017.88 1017.91
1010.95 1011.35 1010.73 1009.93 1008.88 1008.03 1007.43 1006.82 1005.88 1005.44 1004.34 1003.58 1003.55 1003.74 1004.94 1005.71 1006.43 1007.39 1008.35 1009.14 1009.53 1009.94 1010.23 1010.37 1010.73 1011.14 1011.42 1011.67 1012.07 1012.47 1012.90 1013.31 1013.61 1013.99 1014.38 1014.85 1015.16 1015.34 1015.47 1015.85 1016.21 1016.52 1016.85 1017.21 1017.45 1017.67 1017.80 1017.90 1018.02
1010.46 1009.90 1009.61 1008.74 1007.85 1007.85 1007.43 1006.52 1005.93 1005.58 1004.96 1004.28 1004.14 1004.26 1004.78 1005.42 1006.06 1006.66 1007.35 1007.56 1007.95 1008.57 1009.57 1009.99 1010.45 1010.81 1011.22 1011.50 1011.92 1012.33 1012.71 1013.11 1013.51 1013.83 1014.33 1014.82 1015.21 1015.47 1015.62 1015.87 1016.20 1016.60 1016.92 1017.18 1017.33 1017.58 1017.77 1017.84 1017.99
1010.38 1009.33 1009.03 1008.34 1007.57 1007.51 1007.17 1006.41 1005.69 1005.43 1004.88 1004.85 1004.70 1003.94 1004.40 1004.95 1005.43 1006.02 1006.64 1006.99 1007.69 1008.31 1008.69 1009.32 1009.92 1010.43 1010.87 1011.13 1011.67 1012.03 1012.44 1012.87 1013.24 1013.58 1013.99 1014.53 1015.08 1015.42 1015.68 1015.87 1016.13 1016.48 1016.74 1017.17 1017.29 1017.46 1017.53 1017.67 1017.74
1009.75 1009.21 1008.54 1007.98 1007.39 1007.04 1006.76 1006.33 1005.70 1004.84 1004.21 1004.40 1004.87 1004.85 1005.28 1005.04 1005.28 1005.55 1005.68 1006.01 1006.75 1007.76 1008.23 1008.71 1009.31 1009.77 1010.26 1010.82 1011.26 1011.74 1012.08 1012.46 1012.82 1013.28 1013.54 1014.03 1014.62 1015.17 1015.41 1015.83 1016.06 1016.28 1016.52 1016.84 1017.19 1017.18 1017.20 1017.31 1017.35
1008.84 1008.54 1008.07 1007.43 1006.86 1006.49 1006.47 1005.82 1005.71 1004.42 1003.85 1003.95 1003.76 1004.28 1004.76 1005.54 1005.34 1005.11 1005.60 1005.92 1006.49 1006.75 1007.38 1008.01 1008.76 1009.22 1009.86 1010.30 1010.74 1011.17 1011.54 1011.94 1012.48 1012.89 1013.16 1013.52 1014.05 1014.65 1015.04 1015.47 1015.75 1016.01 1016.26 1016.44 1016.66 1016.95 1017.07 1017.12 1017.04
1008.87 1008.70 1007.83 1006.71 1006.39 1005.97 1006.04 1005.19 1004.96 1004.48 1003.88 1003.76 1003.85 1003.88 1004.19 1004.43 1004.93 1005.15 1004.56 1004.89 1005.08 1005.68 1006.20 1007.07 1007.89 1008.67 1009.25 1009.74 1010.28 1010.76 1011.00 1011.43 1012.00 1012.42 1012.77 1013.12 1013.46 1013.91 1014.39 1014.95 1015.35 1015.44 1015.68 1016.03 1016.37 1016.51 1016.67 1016.95 1016.82
1008.66 1008.41 1007.52 1005.63 1005.85 1005.54 1005.99 1004.29 1004.28 1004.19 1004.24 1004.08 1003.65 1003.80 1003.56 1003.59 1003.94 1003.90 1003.95 1004.13 1004.21 1004.67 1005.57 1006.41 1007.26 1008.14 1008.73 1009.20 1009.77 1010.25 1010.58 1010.94 1011.44 1011.96 1012.44 1012.76 1013.06 1013.41 1013.87 1014.35 1014.68 1014.87 1015.38 1015.63 1016.03 1016.41 1016.64 1016.76 1016.88
1008.62 1007.60 1006.93 1006.29 1005.62 1005.55 1005.30 1003.72 1003.82 1003.76 1003.98 1003.96 1003.73 1003.34 1003.48 1003.27 1002.85 1003.02 1003.07 1003.14 1003.58 1003.78 1004.63 1005.71 1006.50 1007.29 1008.03 1008.86 1009.40 1009.87 1010.25 1010.59 1010.93 1011.51 1011.94 1012.31 1012.66 1013.03 1013.44 1013.88 1014.12 1014.50 1014.98 1015.44 1015.80 1016.15 1016.33 1016.78 1016.92
1007.98 1007.50 1007.02 1006.27 1005.54 1005.43 1005.15 1003.51 1003.92 1003.79 1003.89 1003.75 1003.52 1003.10 1003.00 1002.83 1002.37 1001.84 1002.01 1002.15 1002.92 1003.09 1003.88 1004.66 1005.60 1006.59 1007.40 1008.37 1009.02 1009.60 1010.04 1010.28 1010.38 1010.97 1011.51 1011.84 1012.25 1012.62 1013.15 1013.64 1013.94 1014.19 1014.73 1015.13 1015.56 1015.82 1016.11 1016.35 1016.65
1007.84 1007.56 1007.12 1006.07 1005.84 1005.62 1005.03 1004.28 1004.07 1003.78 1003.72 1003.57 1003.34 1003.10 1002.78 1002.43 1001.79 1001.78 1001.88 1001.79 1002.61 1002.77 1003.64 1004.36 1005.10 1006.01 1006.89 1007.84 1008.50 1009.22 1009.44 1009.82 1010.11 1010.58 1011.06 1011.52 1011.91 1012.22 1012.71 1013.52 1014.03 1014.21 1014.64 1014.92 1015.27 1015.81 1016.23 1016.75 1016.91
1008.34 1008.09 1006.82 1006.59 1006.15 1006.08 1005.26 1004.26 1003.96 1003.75 1003.16 1002.83 1002.71 1002.34 1001.99 1001.97 1001.75 1001.68 1001.34 1001.92 1001.91 1002.22 1002.80 1003.64 1004.27 1005.04 1005.71 1006.60 1007.44 1008.37 1009.02 1009.61 1009.91 1010.36 1010.78 1011.04 1011.42 1011.86 1012.24 1013.04 1013.79 1014.22 1014.79 1015.21 1015.49 1015.82 1016.49 1017.07 1017.33
1007.68 1007.52 1006.26 1006.25 1006.74 1006.02 1005.68 1004.60 1003.85 1003.11 1002.52 1001.95 1001.91 1001.73 1001.57 1001.29 1001.37 1001.31 1001.21 1001.41 1002.14 1001.97 1002.22 1002.62 1003.04 1003.61 1004.42 1005.45 1006.99 1008.12 1009.08 1009.85 1010.15 1010.17 1010.48 1010.68 1011.05 1011.46 1011.89 1012.55 1013.49 1014.10 1014.62 1015.37 1015.73 1015.98 1016.38 1017.14 1017.53
1006.79 1006.26 1006.85 1006.64 1007.26 1006.04 1005.53 1004.63 1003.49 1002.17 1001.51 1001.55 1001.20 1001.50 1001.26 1000.92 1000.53 1000.43 1000.72 1001.11 1001.46 1001.37 1001.08 1001.54 1002.04 1002.77 1003.65 1004.63 1005.83 1006.76 1007.48 1008.44 1008.86 1009.50 1010.17 1010.74 1011.11 1011.70 1012.22 1012.77 1013.45 1014.12 1014.69 1015.21 1015.75 1016.10 1016.48 1016.86 1017.60
1005.40 1006.95 1006.50 1006.75 1006.88 1006.47 1005.84 1005.31 1001.50 1001.62 1001.24 1000.51 1000.53 1000.57 1000.45 1000.13 999.79 999.77 1000.09 1000.13 1000.23 1000.53 1000.80 1001.02 1001.43 1002.25 1003.09 1003.95 1004.85 1005.97 1007.01 1007.83 1008.28 1009.23 1010.17 1010.87 1011.40 1011.75 1012.36 1012.89 1013.62 1014.33 1014.83 1015.31 1015.75 1016.32 1016.57 1017.05 1017.44
1006.00 1006.20 1006.42 1006.65 1006.65 1006.34 1004.43 1004.67 1000.67 1000.66 999.89 999.86 999.78 999.61 999.41 999.27 999.13 998.88 999.18 999.59 999.80 1000.11 1000.60 1001.01 1001.38 1002.10 1002.84 1003.59 1004.41 1005.34 1006.14 1007.07 1008.06 1008.97 1010.06 1010.97 1011.59 1012.16 1012.63 1013.06 1013.70 1014.18 1014.76 1015.41 1015.99 1016.50 1016.95 1017.11 1017.43
1005.63 1006.17 1006.23 1006.58 1005.95 1004.32 1003.17 1003.75 1000.44 998.94 999.08 999.27 999.25 998.93 998.65 998.52 998.65 998.89 999.06 999.67 999.96 1000.00 1000.28 1000.79 1001.54 1002.05 1002.55 1003.30 1004.27 1005.05 1005.79 1006.43 1007.34 1008.29 1009.49 1010.59 1011.58 1012.27 1012.66 1013.02 1013.90 1014.67 1015.04 1015.58 1016.01 1016.32 1017.30 1017.52 1017.65
1004.34 1004.81 1005.09 1005.03 1004.38 1003.06 1002.96 1002.37 999.45 997.98 998.95 998.34 998.23 998.12 998.17 998.45 998.86 998.93 998.97 999.20 999.20 999.55 999.79 1000.28 1001.04 1002.12 1002.73 1003.42 1004.25 1005.12 1005.91 1006.58 1007.32 1007.77 1008.81 1009.53 1010.57 1011.59 1012.28 1013.05 1013.51 1014.59 1015.17 1015.67 1016.33 1016.39 1017.33 1017.74 1017.79
1003.54 1003.96 1003.77 1004.63 1004.68 1004.35 1002.47 1001.17 1000.05 997.95 997.74 997.57 997.66 998.16 997.91 997.88 998.33 998.32 998.33 998.29 998.36 998.99 999.41 999.57 1000.61 1001.62 1002.46 1003.21 1004.16 1004.85 1005.61 1006.44 1007.12 1007.86 1008.59 1009.54 1010.27 1011.34 1012.28 1013.04 1013.77 1014.69 1015.34 1015.78 1016.41 1016.86 1017.55 1017.86 1017.92
1003.09 1003.33 1004.29 1004.46 1004.17 1003.60 1001.94 1000.46 999.11 997.20 996.41 997.36 997.55 997.71 997.70 997.69 997.72 997.56 997.44 997.55 997.85 998.28 999.23 999.88 1000.27 1001.03 1001.92 1002.86 1003.88 1004.70 1005.37 1006.04 1006.94 1007.74 1008.64 1009.55 1010.59 1011.47 1012.32 1013.20 1014.03 1014.75 1015.63 1015.89 1016.55 1017.10 1017.70 1017.74 1018.15
1004.05 1003.82 1004.19 1004.52 1004.08 1003.48 1002.49 999.80 998.81 997.18 996.83 997.04 997.08 997.18 997.33 997.52 997.26 996.96 996.71 996.97 997.50 998.17 998.73 999.37 1000.17 1000.84 1001.72 1002.59 1003.44 1004.25 1005.14 1005.94 1006.65 1007.45 1008.62 1009.74 1010.86 1011.88 1012.83 1013.56 1014.27 1015.12 1015.73 1016.11 1016.64 1017.19 1017.52 1017.91 1018.19
1005.46 1005.60 1005.86 1005.59 1004.27 1004.37 1002.71 1000.23 998.08 996.89 996.14 996.94 997.01 997.00 997.11 997.06 996.89 996.61 996.50 996.96 997.50 997.97 998.69 999.27 1000.06 1000.83 1001.70 1002.67 1003.53 1004.35 1005.12 1005.90 1006.83 1007.53 1008.53 1009.44 1010.56 1011.80 1012.25 1013.56 1014.42 1015.33 1015.85 1016.43 1016.81 1017.12 1017.57 1017.87 1018.13
Wind_Speed
5 5 1 4 5 6 5 7 5 9 7 3 11 9 15 9 8 7 4 12 18 17 13 13 15 16 17 17 17 16 16 15 15 16 14 14 13 13 12 12 12 12 12 12 11 10 10 9 8
4 3 5 2 4 2 7 7 6 10 7 7 14 8 4 4 3 8 5 9 20 17 13 12 16 17 17 17 17 17 16 16 15 15 15 14 13 13 12 10 10 11 11 11 11 10 9 7 6
3 1 3 4 4 6 6 5 8 13 8 8 5 4 5 6 5 9 10 16 15 15 12 12 16 16 17 17 17 17 16 15 15 14 15 15 14 13 13 10 8 9 11 10 10 10 8 6 5
3 5 4 3 8 9 5 13 7 10 3 7 6 7 5 5 14 10 16 17 15 12 11 13 15 16 17 17 17 17 16 15 14 14 15 14 13 13 12 10 8 8 9 10 9 9 8 7 4
4 3 1 2 7 7 6 8 11 11 6 5 6 4 4 3 13 21 18 16 16 12 10 12 13 16 17 17 17 17 16 16 15 14 14 14 14 12 11 10 8 7 7 8 8 8 7 6 4
4 3 1 4 6 6 8 9 10 17 7 6 7 9 4 11 19 17 17 15 15 14 12 11 14 15 16 16 16 16 16 16 15 14 13 14 14 13 11 9 9 8 7 7 6 6 5 5 3
6 3 5 5 9 9 5 9 6 5 3 5 13 6 5 7 11 16 13 14 13 13 12 10 10 12 13 13 14 14 15 15 14 14 13 13 13 13 12 11 10 9 7 5 5 5 5 3 2
5 5 4 5 6 11 4 11 11 8 1 5 6 7 9 10 11 14 11 10 11 10 11 11 10 10 10 10 13 13 13 14 14 14 13 12 13 13 12 12 10 10 8 6 5 4 4 3 3
5 1 4 6 6 8 8 9 8 16 1 4 1 7 16 15 17 17 13 7 8 6 9 10 10 10 9 9 10 12 14 14 14 13 12 11 6 8 9 9 11 10 9 8 6 5 4 3 4
4 5 9 8 9 10 5 7 11 6 11 6 7 16 17 18 17 17 14 12 11 11 10 11 11 11 9 8 8 8 9 7 8 8 9 5 5 6 7 8 10 10 10 9 7 6 5 3 2
5 8 4 10 16 8 6 12 3 4 7 4 13 19 21 21 19 19 17 19 21 17 11 12 11 10 11 8 7 5 4 5 5 7 7 5 4 4 4 3 4 4 7 3 5 4 3 4 3
6 7 7 9 16 6 6 8 10 4 9 1 6 20 22 19 19 18 18 17 12 16 15 14 14 13 11 6 7 7 6 6 5 7 9 6 4 5 4 3 4 4 3 4 4 3 4 5 5
12 12 10 11 15 9 8 10 13 9 10 6 6 10 8 16 17 15 18 17 13 15 15 15 15 14 13 10 8 7 8 7 7 7 9 7 6 5 5 4 4 4 4 4 4 4 4 5 5
6 7 10 10 14 7 7 11 4 11 9 7 6 4 9 8 14 15 9 9 14 15 16 16 15 15 14 11 11 9 8 8 7 7 8 9 7 5 6 6 5 5 5 4 4 4 4 4 4
14 16 16 18 8 9 1 14 8 10 8 9 8 9 7 11 11 12 17 14 20 17 18 19 18 15 15 14 11 9 8 8 8 7 8 10 9 8 8 7 6 6 5 6 4 4 3 3 2
4 3 9 14 16 7 7 22 8 7 6 10 11 9 9 8 11 13 12 10 18 17 19 18 15 17 15 14 11 9 9 8 7 7 7 10 10 8 6 6 6 5 4 4 4 3 2 2 2
6 12 11 13 6 5 9 20 9 7 8 10 10 10 10 10 11 10 11 11 15 19 19 18 18 18 17 12 10 9 10 8 7 6 7 10 10 9 7 5 5 5 4 4 4 2 3 3 3
11 14 6 6 1 8 12 24 10 8 8 11 11 11 11 11 13 13 11 8 14 17 19 19 16 17 16 10 8 4 8 6 8 7 7 8 7 8 6 4 5 5 5 4 4 4 3 2 2
5 11 14 8 7 7 13 13 9 9 7 12 14 13 13 15 16 9 9 9 12 15 17 19 18 16 13 11 11 9 11 7 5 6 7 7 7 8 8 4 5 4 5 5 5 2 3 1 2
11 9 18 6 7 4 10 19 16 10 14 10 13 17 18 7 7 10 8 7 17 19 19 19 19 19 16 12 11 6 8 5 6 6 7 9 10 10 9 8 6 6 4 4 4 3 3 2 2
20 22 24 21 4 11 8 16 12 9 9 8 8 10 9 11 10 8 7 11 7 18 20 21 22 22 20 16 9 5 5 4 4 7 5 4 7 8 8 7 6 5 5 5 3 4 5 3 1
20 19 19 17 5 13 8 16 18 13 16 10 10 8 10 10 9 7 9 9 10 16 18 20 21 21 19 18 16 19 14 12 6 6 5 4 6 7 7 8 7 7 5 6 4 4 3 3 3
19 16 16 12 10 8 9 4 17 16 16 18 13 10 10 11 10 9 11 14 14 12 16 18 19 19 18 18 18 15 13 6 8 7 9 8 6 8 9 9 8 7 5 5 6 5 4 2 3
14 13 15 10 8 13 23 15 22 16 19 7 7 9 11 10 10 9 8 11 14 7 9 14 16 17 17 18 17 19 16 12 11 10 8 7 7 6 7 8 7 7 7 6 5 5 4 3 3
21 17 10 9 11 18 19 11 25 8 21 20 13 13 13 10 8 8 6 8 9 9 12 12 16 17 18 18 16 15 14 15 16 14 11 12 8 5 7 9 7 4 5 5 5 6 4 3 3
21 21 12 11 17 22 18 10 25 24 17 16 12 17 13 9 7 9 10 9 14 16 16 16 18 16 15 15 12 10 11 8 9 13 12 12 10 8 8 9 10 8 7 6 5 4 4 3 4
21 16 23 21 17 8 8 7 21 26 23 21 20 14 17 15 10 12 11 10 10 13 16 19 19 16 15 14 12 11 11 11 11 10 11 9 10 9 11 10 10 7 7 6 6 4 4 4 4
24 16 13 13 19 21 11 18 13 24 28 22 20 17 16 11 12 11 11 10 12 14 13 14 16 18 16 14 13 12 12 12 11 12 13 12 10 10 11 10 9 7 6 7 6 5 4 5 2
8 17 21 11 12 14 16 16 17 22 16 12 13 14 14 17 13 12 10 9 11 12 15 16 16 17 16 15 13 13 11 12 13 13 12 12 12 10 10 9 9 8 8 7 6 6 5 4 2
6 4 4 6 14 3 8 11 4 27 21 7 8 8 7 7 9 8 8 9 12 14 14 15 14 15 14 13 12 13 13 14 14 14 14 14 14 11 12 10 9 9 7 6 6 6 5 4 2
Wind_Direction
309 287 123 43 42 69 262 263 287 293 356 332 135 153 192 149 153 201 350 129 136 143 151 162 156 151 147 141 138 137 136 134 128 123 120 115 113 108 106 107 107 108 110 109 108 104 100 94 88
334 332 41 82 90 48 282 236 269 260 182 111 105 137 19 156 97 111 91 144 148 142 149 162 160 154 151 146 144 142 143 139 135 130 125 122 120 116 112 110 112 113 116 118 113 107 106 99 83
298 31 90 133 157 188 220 253 316 321 159 199 102 84 106 144 97 131 130 141 136 138 151 161 160 154 153 150 147 147 147 144 140 136 132 131 130 127 122 119 115 119 124 123 122 118 114 107 92
39 7 17 128 230 257 233 286 297 309 167 104 130 73 46 242 150 138 135 136 135 143 152 156 155 156 156 154 152 150 150 149 145 143 139 137 136 133 130 126 129 131 130 128 127 127 130 132 113
39 63 348 259 255 266 278 269 273 284 253 134 129 114 97 356 116 131 140 147 145 145 147 156 155 159 160 159 157 154 156 152 152 149 143 139 138 140 137 136 140 137 132 134 138 142 144 145 139
11 91 38 257 259 280 293 271 269 269 240 140 101 122 152 143 136 150 149 151 148 146 149 158 161 163 162 162 161 157 158 156 156 153 147 145 144 146 146 146 147 147 140 141 150 153 156 161 165
148 92 233 257 282 297 277 305 295 221 213 179 145 104 129 149 144 144 146 140 139 143 148 156 164 167 161 164 162 158 158 159 161 156 154 153 152 153 155 155 155 151 156 164 172 170 163 182 211
123 125 253 251 267 279 232 338 326 282 212 107 153 153 176 179 136 114 115 123 130 141 151 156 161 165 168 174 163 160 160 160 164 160 158 159 161 162 161 161 163 160 162 175 193 193 194 197 243
117 127 242 237 229 247 335 336 333 311 124 59 74 145 155 138 125 116 118 116 126 142 157 161 163 168 168 168 171 162 166 165 165 163 163 158 168 168 166 169 170 169 174 181 198 203 219 239 260
141 166 222 211 245 279 285 313 315 350 326 30 62 101 126 134 135 138 149 155 165 172 180 175 171 171 164 170 167 163 170 171 169 166 167 165 167 173 166 173 178 179 180 185 196 212 227 256 273
234 229 227 262 267 259 271 293 267 322 321 270 145 142 150 154 156 160 168 170 182 182 173 180 174 172 171 172 164 165 166 165 169 162 161 162 166 172 179 167 175 173 189 184 191 205 217 226 229
241 259 238 267 270 272 255 275 282 224 240 82 236 166 166 170 168 170 176 184 168 177 179 175 178 174 179 164 174 171 168 172 174 174 167 165 170 181 185 179 173 175 172 195 200 199 217 234 230
244 265 268 256 265 266 262 254 258 257 263 262 170 191 218 181 184 183 185 187 174 177 181 182 176 179 180 170 174 176 181 181 179 179 180 174 179 180 169 176 177 184 169 187 213 213 215 226 225
271 257 259 264 271 262 259 269 195 270 258 279 306 165 179 215 211 192 187 179 184 184 183 176 182 180 180 181 179 182 181 177 177 185 188 180 180 170 172 177 187 183 186 196 199 209 224 228 218
255 260 273 260 252 264 29 280 223 249 274 275 271 274 210 207 200 225 199 185 189 193 180 178 180 180 183 185 180 178 182 173 182 187 186 188 183 182 178 176 184 193 188 191 196 214 222 237 227
218 243 240 249 243 247 154 266 262 257 252 266 273 259 268 239 205 220 224 205 195 184 179 177 176 183 180 185 181 181 180 176 179 183 188 191 191 179 176 180 190 184 175 185 183 188 189 189 178
210 242 230 263 222 231 179 262 245 232 237 253 255 270 259 266 279 235 228 210 180 179 175 177 178 181 181 175 172 177 176 178 170 174 185 189 188 181 181 182 179 171 181 181 169 164 162 181 222
229 234 246 216 232 209 241 255 262 279 259 250 257 257 254 257 252 263 253 211 186 178 177 175 176 179 176 168 161 151 174 176 168 170 180 174 182 179 173 178 174 169 160 163 169 167 181 172 212
283 243 251 238 216 259 260 271 255 256 258 258 250 243 242 237 247 264 249 188 177 170 168 176 170 174 166 170 171 177 188 181 170 171 175 181 179 181 170 168 163 167 168 178 175 140 151 73 65
252 270 263 272 262 287 266 268 271 249 255 219 241 252 243 223 229 250 221 186 173 172 177 174 178 171 177 177 180 178 176 190 173 160 177 183 182 181 170 161 172 160 130 139 134 130 111 96 28
233 235 244 247 305 283 268 276 265 258 239 241 236 242 251 217 219 235 188 187 207 177 180 182 180 178 179 172 150 122 108 106 152 177 172 168 164 162 163 142 140 133 123 134 123 118 124 143 26
235 225 245 256 230 248 152 269 265 249 255 249 239 228 243 242 234 214 201 187 200 204 185 183 179 178 178 168 165 170 176 176 185 165 152 129 126 120 119 117 124 127 125 127 127 124 124 122 154
243 236 243 240 222 253 245 257 252 250 250 245 250 237 239 249 244 222 201 200 206 196 188 186 182 179 175 174 173 170 176 165 143 136 145 132 118 128 130 128 126 119 114 118 122 110 108 94 113
251 251 254 247 233 243 240 226 266 237 245 245 246 248 244 244 260 261 217 211 212 186 177 183 179 178 170 175 173 177 166 152 150 153 148 149 137 132 128 121 120 119 125 113 106 104 104 126 110
223 234 246 245 227 236 238 213 240 234 234 241 242 252 248 251 256 270 273 216 218 190 175 170 174 176 174 172 169 170 166 159 159 158 155 150 147 148 141 130 111 106 98 97 106 108 96 84 103
216 217 220 215 224 232 240 214 237 243 255 257 249 251 259 255 228 244 256 225 213 201 180 172 173 170 170 165 155 150 152 165 164 164 159 159 159 146 138 129 123 129 117 112 108 102 116 122 107
229 241 234 246 263 275 243 193 242 249 246 245 246 259 262 257 241 245 248 240 202 191 185 172 173 168 164 157 149 155 159 162 162 152 155 150 137 135 133 125 123 124 125 116 118 108 106 104 81
228 230 239 229 239 242 239 229 216 238 241 244 247 247 255 255 261 256 254 207 187 176 170 165 166 171 164 152 159 163 160 155 151 150 145 132 125 128 128 126 122 116 114 111 113 108 117 100 97
253 230 237 250 224 229 247 240 223 245 241 222 228 233 245 263 254 245 236 212 183 169 167 167 166 164 163 166 163 158 152 149 148 139 127 130 123 120 125 121 120 119 124 115 115 125 116 118 130
278 282 275 236 217 215 238 260 266 236 242 195 224 237 246 243 267 272 208 167 172 174 167 170 164 164 167 160 150 151 144 144 140 135 135 136 135 141 131 131 122 123 116 123 125 125 130 133 121